{"data":{"norad_id":53977,"epoch":"2026-09-20T14:09:10.349568Z","epoch_age_seconds":78782,"freshness":"FRESH","line1":"1 53977U 22125P   26263.58970312  .00001569  00000+0  55923-4 0  9995","line2":"2 53977  53.1579  51.0275 0001697  98.9863 261.1332 15.35373918218991","mean_motion":15.35373918,"eccentricity":0.0001697,"inclination_deg":53.1579,"raan_deg":51.0275,"arg_perigee_deg":98.9863,"mean_anomaly_deg":261.1332,"bstar":5.5923e-5,"rev_number":21899,"period_min":93.78822859488,"perigee_km":458.64968128772,"apogee_km":460.97048052698,"semimajor_km":6837.9470809073,"source":"CELESTRAK","updated_at":"2026-09-21T09:00:33.041494Z"}}